Погода в Бела-сюр-Мер

Мадагаскар     20°44′43″S   43°59′46″E
темп.,
°C
ветер,
м/с
пор.,
м/с
влажн.,
%
обл.,
%
осадки,
мм/ч
давл.,
гПа
погр.,
м
1 марта, пн
пн100:00+26вюв238059 0.0 100777
03:00+26вюв227956 0.0 100685
06:00+26вюв228095 0.0 100776
09:00+29ссв117397 0.3 1009250
12:00+31сз226363 1.4 1008554
15:00+31зюз226275 1.8 1007689
18:00+29юз237499 0.0 1007199
21:00+27ююв2380100 0.0 100997
2 марта, вт
вт200:00+26юв358194 0.3 1009165
03:00+25в478496 0.7 1008276
06:00+25в4687100 1.2 1008233
09:00+27св4679100 1.2 1010405
12:00+29ссв3670100 0.0 1009630
15:00+29ссз2369100 0.0 1007370
18:00+28зюз237694 0.0 1007224
21:00+27ююв358186 0.0 1009201
3 марта, ср
ср300:00+26ю338368 0.3 1009140
03:00+25ююв348377 1.3 1007115
06:00+25юв238290 0.1 100878
09:00+28св337295 0.1 1009272
12:00+30с456554 0.1 1008753
15:00+30сз446568 0.3 1006585
18:00+28з127192 0.1 1006263
21:00+26ссв118296 3.5 100792
4 марта, чт
чт400:00+25ссв6892100 4.0 1007450
03:00+24св4794100 22.7 1006424
06:00+24в2394100 5.6 1006215
09:00+25вюв3591100 6.3 1007256
12:00+29св467393 0.8 1005970
15:00+27с558196 1.6 1003673
18:00+26вюв2386100 3.1 1004125
21:00+25в3589100 5.3 1005256
5 марта, пт
пт500:00+25в5892100 1.9 1005384
03:00+24в4992100 3.1 1003660
06:00+24в379299 0.1 1003431
09:00+25в4988100 0.3 1004559
12:00+27в6979100 0.9 10031019
15:00+29вюв356799 1.6 10011113
18:00+27ю348194 0.8 1002398
21:00+24ююв468879 1.1 1004204